• In Hungary
  • List of Countries
  • For 7 days
  • Water Temperature
  • Satellite Maps
  • Weather Map
  • News
  • Weather Widgets
  • user-avatar
    Login

    Hourly Weather Novopavlovka

    Today, 17 August, Friday

    Time Temperature Precipitation Wind Pressure Humidity
    00:00 +21°C° 0 mm 2 mps 746 mmHg 40%
    01:00 +21°C° 0 mm 2 mps 746 mmHg 40%
    02:00 +21°C° 0 mm 2 mps 746 mmHg 40%
    03:00 +20°C° 0 mm 2 mps 745 mmHg 40%
    04:00 +20°C° 0 mm 2 mps 745 mmHg 41%
    05:00 +21°C° 0 mm 3 mps 745 mmHg 40%
    06:00 +21°C° 0 mm 3 mps 745 mmHg 39%
    07:00 +22°C° 0 mm 3 mps 745 mmHg 39%
    08:00 +25°C° 0 mm 3 mps 745 mmHg 34%
    09:00 +27°C° 0 mm 4 mps 745 mmHg 29%
    10:00 +29°C° 0 mm 5 mps 745 mmHg 25%
    11:00 +30°C° 0 mm 4 mps 745 mmHg 24%
    12:00 +32°C° 0 mm 4 mps 744 mmHg 22%
    13:00 +33°C° 0 mm 4 mps 744 mmHg 21%
    14:00 +33°C° 0 mm 4 mps 744 mmHg 22%
    15:00 +33°C° 0 mm 4 mps 744 mmHg 23%
    16:00 +33°C° 0 mm 4 mps 743 mmHg 24%
    17:00 +32°C° 0 mm 4 mps 743 mmHg 34%
    18:00 +29°C° 0 mm 4 mps 743 mmHg 43%
    19:00 +27°C° 0 mm 5 mps 743 mmHg 53%
    20:00 +25°C° 0.3 mm 5 mps 743 mmHg 62%
    21:00 +21°C° 0.3 mm 5 mps 743 mmHg 71%
    22:00 +19°C° 0.3 mm 6 mps 743 mmHg 80%
    23:00 +17°C° 0 mm 6 mps 743 mmHg 80%

    Tomorrow, 18 August, Saturday

    Time Temperature Precipitation Wind Pressure Humidity
    00:00 +17°C° 0 mm 6 mps 743 mmHg 79%
    01:00 +16°C° 0 mm 6 mps 743 mmHg 79%
    02:00 +16°C° 0.1 mm 5 mps 743 mmHg 79%
    03:00 +15°C° 0.1 mm 5 mps 743 mmHg 79%
    04:00 +15°C° 0.1 mm 5 mps 743 mmHg 80%
    05:00 +15°C° 0.2 mm 5 mps 743 mmHg 79%
    06:00 +15°C° 0.2 mm 6 mps 743 mmHg 79%
    07:00 +15°C° 0.2 mm 6 mps 743 mmHg 78%
    08:00 +16°C° 0.1 mm 6 mps 743 mmHg 73%
    09:00 +17°C° 0.1 mm 6 mps 743 mmHg 68%
    10:00 +18°C° 0.1 mm 7 mps 744 mmHg 62%
    11:00 +20°C° 0 mm 7 mps 743 mmHg 58%
    12:00 +21°C° 0 mm 7 mps 743 mmHg 54%
    13:00 +22°C° 0 mm 7 mps 743 mmHg 50%
    14:00 +22°C° 0 mm 6 mps 743 mmHg 48%
    15:00 +22°C° 0 mm 6 mps 743 mmHg 47%
    16:00 +22°C° 0 mm 6 mps 743 mmHg 45%
    17:00 +22°C° 0 mm 6 mps 743 mmHg 47%
    18:00 +21°C° 0 mm 5 mps 743 mmHg 49%
    19:00 +20°C° 0 mm 5 mps 743 mmHg 51%
    20:00 +19°C° 0 mm 5 mps 744 mmHg 55%
    21:00 +17°C° 0 mm 5 mps 744 mmHg 60%
    22:00 +16°C° 0 mm 5 mps 744 mmHg 64%
    23:00 +15°C° 0 mm 4 mps 744 mmHg 67%

    Day after tomorrow, 19 August, Sunday

    Time Temperature Precipitation Wind Pressure Humidity
    00:00 +15°C° 0 mm 4 mps 744 mmHg 70%
    01:00 +14°C° 0 mm 4 mps 744 mmHg 72%
    02:00 +13°C° 0 mm 4 mps 744 mmHg 73%
    03:00 +13°C° 0 mm 4 mps 744 mmHg 74%
    04:00 +13°C° 0 mm 4 mps 744 mmHg 75%
    05:00 +13°C° 0 mm 5 mps 744 mmHg 72%
    06:00 +13°C° 0 mm 5 mps 744 mmHg 68%
    07:00 +14°C° 0 mm 6 mps 745 mmHg 64%
    08:00 +16°C° 0 mm 6 mps 745 mmHg 58%
    09:00 +17°C° 0 mm 7 mps 745 mmHg 51%
    10:00 +20°C° 0 mm 7 mps 745 mmHg 45%
    11:00 +21°C° 0 mm 7 mps 745 mmHg 42%
    12:00 +22°C° 0 mm 7 mps 745 mmHg 39%
    13:00 +22°C° 0 mm 7 mps 744 mmHg 36%
    14:00 +22°C° 0 mm 7 mps 744 mmHg 37%
    15:00 +22°C° 0 mm 6 mps 744 mmHg 37%
    16:00 +22°C° 0 mm 6 mps 744 mmHg 38%
    17:00 +21°C° 0 mm 6 mps 744 mmHg 42%
    18:00 +20°C° 0 mm 5 mps 744 mmHg 46%
    19:00 +19°C° 0 mm 5 mps 745 mmHg 50%
    20:00 +17°C° 0 mm 5 mps 745 mmHg 54%
    21:00 +16°C° 0 mm 5 mps 745 mmHg 59%
    22:00 +15°C° 0 mm 5 mps 745 mmHg 63%
    23:00 +14°C° 0 mm 4 mps 745 mmHg 65%

    20 August, Monday

    Time Temperature Precipitation Wind Pressure Humidity
    00:00 +14°C° 0 mm 4 mps 745 mmHg 68%
    01:00 +13°C° 0 mm 4 mps 745 mmHg 70%
    02:00 +12°C° 0 mm 4 mps 745 mmHg 72%
    03:00 +12°C° 0 mm 4 mps 745 mmHg 74%
    04:00 +11°C° 0 mm 4 mps 746 mmHg 77%
    05:00 +11°C° 0 mm 4 mps 746 mmHg 76%
    06:00 +10°C° 0 mm 5 mps 746 mmHg 76%
    07:00 +10°C° 0 mm 5 mps 746 mmHg 75%
    08:00 +13°C° 0 mm 5 mps 746 mmHg 68%
    09:00 +15°C° 0 mm 5 mps 746 mmHg 61%
    10:00 +16°C° 0 mm 5 mps 746 mmHg 54%
    11:00 +19°C° 0 mm 6 mps 746 mmHg 49%
    12:00 +20°C° 0 mm 6 mps 746 mmHg 45%
    13:00 +21°C° 0 mm 6 mps 746 mmHg 40%
    14:00 +21°C° 0 mm 5 mps 746 mmHg 40%
    15:00 +21°C° 0 mm 5 mps 746 mmHg 40%
    16:00 +21°C° 0 mm 5 mps 746 mmHg 40%
    17:00 +21°C° 0 mm 4 mps 746 mmHg 43%
    18:00 +20°C° 0 mm 4 mps 746 mmHg 46%
    19:00 +19°C° 0 mm 3 mps 746 mmHg 49%
    20:00 +18°C° 0 mm 3 mps 747 mmHg 54%
    21:00 +17°C° 0 mm 3 mps 747 mmHg 58%
    22:00 +16°C° 0 mm 3 mps 747 mmHg 63%
    23:00 +14°C° 0 mm 3 mps 747 mmHg 66%

    21 August, Tuesday

    Time Temperature Precipitation Wind Pressure Humidity
    00:00 +14°C° 0 mm 3 mps 747 mmHg 70%
    01:00 +13°C° 0 mm 3 mps 747 mmHg 73%
    02:00 +12°C° 0 mm 3 mps 747 mmHg 76%
    03:00 +12°C° 0 mm 3 mps 747 mmHg 79%
    04:00 +11°C° 0 mm 3 mps 747 mmHg 82%
    05:00 +12°C° 0 mm 3 mps 748 mmHg 79%
    06:00 +12°C° 0 mm 3 mps 748 mmHg 77%
    07:00 +13°C° 0 mm 3 mps 748 mmHg 75%
    08:00 +15°C° 0 mm 4 mps 748 mmHg 66%
    09:00 +18°C° 0 mm 4 mps 748 mmHg 56%
    10:00 +20°C° 0 mm 4 mps 748 mmHg 47%
    11:00 +21°C° 0 mm 4 mps 748 mmHg 43%
    12:00 +22°C° 0 mm 5 mps 748 mmHg 39%
    13:00 +23°C° 0 mm 5 mps 748 mmHg 34%
    14:00 +23°C° 0 mm 5 mps 748 mmHg 35%
    15:00 +25°C° 0 mm 5 mps 747 mmHg 35%
    16:00 +25°C° 0 mm 5 mps 747 mmHg 35%
    17:00 +23°C° 0 mm 4 mps 747 mmHg 40%
    18:00 +22°C° 0 mm 4 mps 747 mmHg 45%
    19:00 +21°C° 0 mm 3 mps 747 mmHg 50%
    20:00 +20°C° 0 mm 3 mps 748 mmHg 54%
    21:00 +19°C° 0 mm 2 mps 748 mmHg 58%
    22:00 +18°C° 0 mm 2 mps 748 mmHg 62%
    23:00 +18°C° 0 mm 2 mps 748 mmHg 65%

    22 August, Wednesday

    Time Temperature Precipitation Wind Pressure Humidity
    00:00 +17°C° 0 mm 2 mps 748 mmHg 67%
    01:00 +17°C° 0 mm 2 mps 748 mmHg 70%
    02:00 +16°C° 0 mm 1 mps 748 mmHg 71%
    03:00 +16°C° 0 mm 1 mps 748 mmHg 73%
    04:00 +15°C° 0 mm 1 mps 748 mmHg 74%
    05:00 +16°C° 0 mm 1 mps 749 mmHg 70%
    06:00 +18°C° 0 mm 1 mps 749 mmHg 67%
    07:00 +19°C° 0 mm 1 mps 749 mmHg 63%
    08:00 +20°C° 0 mm 2 mps 749 mmHg 56%
    09:00 +22°C° 0 mm 3 mps 749 mmHg 48%
    10:00 +24°C° 0 mm 3 mps 749 mmHg 41%
    11:00 +25°C° 0 mm 3 mps 749 mmHg 37%
    12:00 +26°C° 0 mm 4 mps 749 mmHg 33%
    13:00 +27°C° 0 mm 4 mps 749 mmHg 30%
    14:00 +28°C° 0 mm 4 mps 749 mmHg 29%
    15:00 +28°C° 0 mm 4 mps 748 mmHg 28%
    16:00 +29°C° 0 mm 4 mps 748 mmHg 26%
    17:00 +27°C° 0 mm 4 mps 748 mmHg 30%
    18:00 +26°C° 0 mm 3 mps 748 mmHg 34%
    19:00 +25°C° 0 mm 2 mps 748 mmHg 37%
    20:00 +24°C° 0 mm 2 mps 748 mmHg 40%
    21:00 +23°C° 0 mm 1 mps 748 mmHg 42%
    22:00 +21°C° 0 mm 1 mps 748 mmHg 45%
    23:00 +21°C° 0 mm 1 mps 748 mmHg 46%
    Show more